StationID,Date,MaxTemp,MinTemp,Precipitation,Snowfall,SnowDepth
"USC00500270","1953-07-09",64.04,,0.00,0.00,0.00
"USC00500270","1953-07-10",71.06,,0.00,0.00,0.00
"USC00500270","1953-07-11",69.08,37.94,0.00,0.00,0.00
"USC00500270","1953-07-12",55.04,41.00,0.00,0.00,0.00
"USC00500270","1953-07-13",50.00,39.02,64.00,0.00,0.00
"USC00500270","1953-07-14",48.02,37.04,15.00,0.00,0.00
"USC00500270","1953-07-15",50.00,37.94,0.00,0.00,0.00
"USC00500270","1953-07-16",53.96,35.06,0.00,0.00,0.00
"USC00500270","1953-07-17",48.02,37.04,13.00,0.00,0.00
"USC00500270","1953-07-18",57.92,35.06,0.00,0.00,0.00
"USC00500270","1953-07-19",59.00,32.00,3.00,0.00,0.00
"USC00500270","1953-07-20",55.94,44.96,30.00,0.00,0.00
"USC00500270","1953-07-21",60.98,44.96,33.00,0.00,0.00
"USC00500270","1953-07-22",66.02,41.00,0.00,0.00,0.00
"USC00500270","1953-07-23",62.96,44.96,0.00,0.00,0.00
"USC00500270","1953-07-24",75.02,46.94,0.00,0.00,0.00
"USC00500270","1953-07-25",69.08,44.06,0.00,0.00,0.00
"USC00500270","1953-07-26",64.04,46.04,0.00,0.00,0.00
"USC00500270","1953-07-27",77.00,35.96,0.00,0.00,0.00
"USC00500270","1953-07-28",75.02,42.98,18.00,0.00,0.00
"USC00500270","1953-07-29",78.98,42.08,0.00,0.00,0.00
"USC00500270","1953-07-30",80.96,48.92,0.00,0.00,0.00
"USC00500270","1953-07-31",78.98,46.04,0.00,0.00,0.00
"USC00500270","1953-08-01",71.96,42.98,5.00,0.00,0.00
"USC00500270","1953-08-02",55.94,44.96,30.00,0.00,0.00
"USC00500270","1953-08-03",60.98,42.98,91.00,0.00,0.00
"USC00500270","1953-08-04",55.04,46.04,5.00,0.00,0.00
"USC00500270","1953-08-05",57.92,37.04,0.00,0.00,0.00
"USC00500270","1953-08-06",57.02,42.08,0.00,0.00,0.00
"USC00500270","1953-08-07",55.04,39.92,0.00,0.00,0.00
"USC00500270","1953-08-08",55.94,37.94,15.00,0.00,0.00
"USC00500270","1953-08-09",60.08,42.98,114.00,0.00,0.00
"USC00500270","1953-08-10",62.06,33.08,0.00,0.00,0.00
"USC00500270","1953-08-11",59.00,39.02,0.00,0.00,0.00
"USC00500270","1953-08-12",53.96,41.00,18.00,0.00,0.00
"USC00500270","1953-08-13",50.00,35.96,25.00,0.00,0.00
"USC00500270","1953-08-14",39.02,30.02,25.00,0.00,0.00
"USC00500270","1953-08-15",35.06,28.04,0.00,0.00,0.00
"USC00500270","1953-08-16",42.98,26.96,0.00,0.00,0.00
"USC00500270","1953-08-17",51.08,30.02,0.00,0.00,0.00
"USC00500270","1953-08-18",55.94,30.02,0.00,0.00,0.00
"USC00500270","1953-08-19",51.08,28.94,0.00,0.00,0.00
"USC00500270","1953-08-20",55.04,24.08,0.00,0.00,0.00
"USC00500270","1953-08-21",57.92,24.08,0.00,0.00,0.00
"USC00500270","1953-08-22",51.98,42.08,18.00,0.00,0.00
"USC00500270","1953-08-23",50.00,44.96,127.00,0.00,0.00
"USC00500270","1953-08-24",55.94,41.00,43.00,0.00,0.00
"USC00500270","1953-08-25",48.02,35.06,0.00,0.00,0.00
"USC00500270","1953-08-26",46.04,30.02,8.00,0.00,0.00
"USC00500270","1953-08-27",39.92,28.04,0.00,0.00,0.00
"USC00500270","1953-08-28",39.02,24.98,0.00,0.00,0.00
"USC00500270","1953-08-29",37.94,24.98,0.00,0.00,0.00
"USC00500270","1953-08-30",44.96,26.06,8.00,0.00,0.00
"USC00500270","1953-08-31",50.00,30.02,13.00,0.00,0.00
"USC00500270","1953-09-01",41.00,28.04,18.00,,0.00
"USC00500270","1953-09-02",42.98,28.94,8.00,,0.00
"USC00500270","1953-09-03",44.06,30.92,0.00,,0.00
"USC00500270","1953-09-04",46.94,24.98,0.00,,0.00
"USC00500270","1953-09-05",42.08,24.98,0.00,,0.00
"USC00500270","1953-09-06",26.96,19.94,0.00,,0.00
"USC00500270","1953-09-07",32.00,15.08,0.00,,0.00
"USC00500270","1953-09-08",48.02,28.94,0.00,,0.00
"USC00500270","1953-09-09",50.00,30.02,0.00,,0.00
"USC00500270","1953-09-10",48.02,30.02,0.00,,0.00
"USC00500270","1953-09-11",48.02,24.98,0.00,,0.00
"USC00500270","1953-09-12",39.92,21.92,0.00,,0.00
"USC00500270","1953-09-13",30.02,24.08,8.00,,0.00
"USC00500270","1953-09-14",37.04,24.08,0.00,,0.00
"USC00500270","1953-09-15",46.04,28.04,0.00,,0.00
"USC00500270","1953-09-16",55.04,21.02,0.00,,0.00
"USC00500270","1953-09-17",53.96,19.94,0.00,,0.00
"USC00500270","1953-09-18",53.96,19.94,0.00,,0.00
"USC00500270","1953-09-19",48.02,19.04,15.00,,0.00
"USC00500270","1953-09-20",42.98,17.96,8.00,,0.00
"USC00500270","1953-09-21",42.98,35.06,0.00,,0.00
"USC00500270","1953-09-22",44.96,32.00,0.00,,0.00
"USC00500270","1953-09-23",42.98,30.02,0.00,,0.00
"USC00500270","1953-09-24",42.98,26.96,0.00,,0.00
"USC00500270","1953-09-25",35.96,30.02,8.00,,0.00
"USC00500270","1953-09-26",32.00,24.98,5.00,,0.00
"USC00500270","1953-09-27",26.06,19.94,8.00,,0.00
"USC00500270","1953-09-28",24.98,15.98,13.00,,0.00
"USC00500270","1953-09-29",24.98,6.98,8.00,,0.00
"USC00500270","1953-09-30",24.98,10.94,102.00,,
"USC00500270","1953-10-01",17.96,8.96,8.00,8.00,
"USC00500270","1953-10-02",10.94,5.00,0.00,0.00,
"USC00500270","1953-10-03",8.96,-5.98,0.00,0.00,
"USC00500270","1953-10-04",19.94,-13.00,0.00,0.00,
"USC00500270","1953-10-05",15.98,1.94,0.00,0.00,
"USC00500270","1953-10-06",17.06,1.94,13.00,13.00,
"USC00500270","1953-10-07",23.00,15.08,89.00,89.00,
"USC00500270","1953-10-08",21.02,10.04,0.00,0.00,
"USC00500270","1953-10-09",33.98,5.00,0.00,0.00,
"USC00500270","1953-10-10",30.02,10.04,0.00,0.00,
"USC00500270","1953-10-11",26.06,15.08,13.00,13.00,
"USC00500270","1953-10-12",24.98,19.04,0.00,0.00,
"USC00500270","1953-10-13",24.98,17.96,13.00,13.00,
"USC00500270","1953-10-14",19.94,14.00,8.00,8.00,
"USC00500270","1953-10-15",15.98,3.02,0.00,0.00,
"USC00500270","1953-10-16",24.08,3.92,0.00,0.00,
"USC00500270","1953-10-17",12.02,5.00,0.00,0.00,
"USC00500270","1953-10-18",6.98,6.08,0.00,0.00,
"USC00500270","1953-10-19",10.04,1.94,0.00,0.00,
"USC00500270","1953-10-20",21.02,-5.08,0.00,0.00,
"USC00500270","1953-10-21",24.08,8.06,0.00,0.00,
"USC00500270","1953-10-22",15.08,-0.04,5.00,5.00,
"USC00500270","1953-10-23",12.02,1.94,25.00,25.00,
"USC00500270","1953-10-24",8.96,5.00,8.00,8.00,
"USC00500270","1953-10-25",6.08,-5.08,8.00,8.00,
"USC00500270","1953-10-26",-0.94,-5.08,0.00,0.00,
"USC00500270","1953-10-27",-2.02,-9.04,0.00,0.00,
"USC00500270","1953-10-28",-9.04,-18.04,0.00,0.00,
"USC00500270","1953-10-29",-11.02,-20.02,0.00,0.00,
"USC00500270","1953-10-30",-7.06,-23.08,0.00,0.00,
"USC00500270","1953-10-31",-5.08,-14.08,0.00,0.00,
"USC00500270","1953-11-01",8.06,-20.02,0.00,0.00,
"USC00500270","1953-11-02",6.08,-16.96,3.00,3.00,
"USC00500270","1953-11-03",-0.04,-18.94,0.00,0.00,
"USC00500270","1953-11-04",3.02,-14.08,13.00,13.00,
"USC00500270","1953-11-05",5.00,-9.04,25.00,25.00,
"USC00500270","1953-11-06",1.04,-14.98,0.00,0.00,
"USC00500270","1953-11-07",3.02,-7.06,0.00,0.00,
"USC00500270","1953-11-08",10.04,-0.94,0.00,0.00,
"USC00500270","1953-11-09",8.96,3.02,0.00,0.00,
"USC00500270","1953-11-10",8.06,-5.98,0.00,0.00,
"USC00500270","1953-11-11",5.00,-5.08,0.00,0.00,
"USC00500270","1953-11-12",12.02,-5.98,3.00,3.00,
"USC00500270","1953-11-13",12.02,5.00,0.00,0.00,
"USC00500270","1953-11-14",6.08,3.92,0.00,0.00,
"USC00500270","1953-11-15",6.08,-2.02,38.00,38.00,
"USC00500270","1953-11-16",19.04,3.92,0.00,0.00,
"USC00500270","1953-11-17",21.92,12.92,0.00,0.00,
"USC00500270","1953-11-18",21.02,6.98,0.00,0.00,
"USC00500270","1953-11-19",10.04,-5.98,0.00,0.00,
"USC00500270","1953-11-20",5.00,-7.96,0.00,0.00,
"USC00500270","1953-11-21",3.92,-18.04,0.00,0.00,
"USC00500270","1953-11-22",-14.98,-27.04,0.00,0.00,
"USC00500270","1953-11-23",-22.00,-27.04,0.00,0.00,
"USC00500270","1953-11-24",-14.98,-22.00,0.00,0.00,
"USC00500270","1953-11-25",-0.94,-18.94,0.00,0.00,
"USC00500270","1953-11-26",-0.94,-13.00,0.00,0.00,
"USC00500270","1953-11-27",-4.00,-25.06,0.00,0.00,
"USC00500270","1953-11-28",-16.06,-23.98,0.00,0.00,
"USC00500270","1953-11-29",6.08,-18.04,10.00,10.00,
"USC00500270","1953-11-30",1.04,-11.92,0.00,0.00,
"USC00500270","1953-12-01",10.94,-9.04,0.00,0.00,
"USC00500270","1953-12-02",10.94,-5.98,0.00,0.00,
"USC00500270","1953-12-03",-4.00,-13.00,20.00,20.00,
"USC00500270","1953-12-04",-9.94,-20.92,13.00,13.00,
"USC00500270","1953-12-05",-18.94,-32.08,0.00,0.00,
"USC00500270","1953-12-06",-11.92,-32.08,0.00,0.00,
"USC00500270","1953-12-07",-7.06,-14.98,0.00,0.00,
"USC00500270","1953-12-08",-13.00,-32.08,0.00,0.00,
"USC00500270","1953-12-09",-25.96,-34.06,0.00,0.00,
"USC00500270","1953-12-10",-20.92,-31.00,0.00,0.00,
"USC00500270","1953-12-11",-20.92,-29.92,0.00,0.00,
"USC00500270","1953-12-12",-2.92,-27.04,0.00,0.00,
"USC00500270","1953-12-13",-4.00,-11.92,0.00,0.00,
"USC00500270","1953-12-14",-9.94,-20.02,0.00,0.00,
"USC00500270","1953-12-15",-18.04,-29.92,0.00,0.00,
"USC00500270","1953-12-16",-18.94,-27.94,0.00,0.00,
"USC00500270","1953-12-17",-23.08,-34.96,0.00,0.00,
"USC00500270","1953-12-18",-31.00,-38.92,0.00,0.00,
"USC00500270","1953-12-19",3.92,-32.98,0.00,0.00,
"USC00500270","1953-12-20",8.96,-2.02,13.00,13.00,
"USC00500270","1953-12-21",6.98,1.94,0.00,0.00,
"USC00500270","1953-12-22",21.92,3.92,0.00,0.00,
"USC00500270","1953-12-23",14.00,5.00,0.00,0.00,
"USC00500270","1953-12-24",8.96,-7.06,0.00,0.00,
"USC00500270","1953-12-25",15.98,-7.06,8.00,8.00,
"USC00500270","1953-12-26",-2.92,-14.98,0.00,0.00,
"USC00500270","1953-12-27",3.92,-5.98,0.00,0.00,
"USC00500270","1953-12-28",-0.94,-20.92,8.00,8.00,
"USC00500270","1953-12-29",-18.04,-29.02,0.00,0.00,
"USC00500270","1953-12-30",-14.08,-34.06,0.00,0.00,
"USC00500270","1953-12-31",-14.98,-25.06,0.00,0.00,
"USC00500270","1954-01-01",-16.06,-25.96,0.00,0.00,
"USC00500270","1954-01-02",-20.02,-32.08,0.00,0.00,
"USC00500270","1954-01-03",-25.06,-31.00,0.00,0.00,
"USC00500270","1954-01-04",-23.08,-34.96,0.00,0.00,
"USC00500270","1954-01-05",-27.94,-38.92,0.00,0.00,
"USC00500270","1954-01-06",-5.08,-34.06,0.00,0.00,
"USC00500270","1954-01-07",5.00,-20.92,0.00,0.00,
"USC00500270","1954-01-08",8.06,-16.06,8.00,8.00,
"USC00500270","1954-01-09",-5.08,-25.06,0.00,0.00,
"USC00500270","1954-01-10",-14.98,-38.92,0.00,0.00,
"USC00500270","1954-01-11",-25.06,-36.94,0.00,0.00,
"USC00500270","1954-01-12",-14.08,-34.06,0.00,0.00,
"USC00500270","1954-01-13",8.06,-20.92,0.00,0.00,
"USC00500270","1954-01-14",8.96,-4.00,0.00,0.00,
"USC00500270","1954-01-15",15.08,1.94,0.00,0.00,
"USC00500270","1954-01-16",10.94,-9.94,0.00,0.00,
"USC00500270","1954-01-17",8.06,-7.96,0.00,0.00,
"USC00500270","1954-01-18",17.96,-9.94,13.00,13.00,
"USC00500270","1954-01-19",17.96,-0.94,0.00,0.00,
"USC00500270","1954-01-20",6.08,-9.94,0.00,0.00,
"USC00500270","1954-01-21",8.96,-11.02,0.00,0.00,
"USC00500270","1954-01-22",6.08,-11.02,0.00,0.00,
"USC00500270","1954-01-23",6.98,-9.94,76.00,76.00,
"USC00500270","1954-01-24",6.08,-9.04,13.00,13.00,
"USC00500270","1954-01-25",3.92,-18.94,0.00,0.00,
"USC00500270","1954-01-26",-11.92,-34.06,0.00,0.00,
"USC00500270","1954-01-27",-11.92,-27.94,0.00,0.00,
"USC00500270","1954-01-28",-4.00,-16.06,8.00,8.00,
"USC00500270","1954-01-29",-9.94,-29.02,0.00,0.00,
"USC00500270","1954-01-30",-25.06,-32.98,0.00,0.00,
"USC00500270","1954-01-31",-32.08,-41.98,0.00,0.00,
"USC00500270","1954-02-01",-34.06,-41.98,0.00,0.00,
"USC00500270","1954-02-02",-34.06,-40.00,0.00,0.00,
"USC00500270","1954-02-03",-18.04,-38.92,0.00,0.00,
"USC00500270","1954-02-04",-9.04,-32.98,0.00,0.00,
"USC00500270","1954-02-05",-2.02,-14.98,25.00,25.00,
"USC00500270","1954-02-06",19.94,-20.92,0.00,0.00,
"USC00500270","1954-02-07",15.08,-0.04,0.00,0.00,
"USC00500270","1954-02-08",12.02,1.04,0.00,0.00,
"USC00500270","1954-02-09",3.02,-16.96,0.00,0.00,
"USC00500270","1954-02-10",-0.94,-25.06,0.00,0.00,
"USC00500270","1954-02-11",3.02,-9.94,0.00,0.00,
"USC00500270","1954-02-12",-9.94,-25.96,0.00,0.00,
"USC00500270","1954-02-13",-16.06,-27.04,0.00,0.00,
"USC00500270","1954-02-14",-9.04,-16.96,0.00,0.00,
"USC00500270","1954-02-15",-5.98,-14.08,0.00,0.00,
"USC00500270","1954-02-16",-9.94,-20.92,0.00,0.00,
"USC00500270","1954-02-17",-5.98,-20.02,0.00,0.00,
"USC00500270","1954-02-18",-14.98,-25.96,0.00,0.00,
"USC00500270","1954-02-19",-18.94,-25.96,0.00,0.00,
"USC00500270","1954-02-20",-20.02,-27.94,0.00,0.00,
"USC00500270","1954-02-21",-25.06,-40.00,0.00,0.00,
"USC00500270","1954-02-22",-29.02,-36.94,0.00,0.00,
"USC00500270","1954-02-23",-36.04,-47.02,0.00,0.00,
"USC00500270","1954-02-24",-38.02,-45.04,0.00,0.00,
"USC00500270","1954-02-25",-31.00,-43.06,0.00,0.00,
"USC00500270","1954-02-26",-29.92,-38.02,0.00,0.00,
"USC00500270","1954-02-27",-2.92,-38.92,127.00,127.00,
"USC00500270","1954-02-28",-5.98,-25.06,0.00,0.00,
"USC00500270","1954-03-01",1.94,-14.98,0.00,0.00,
"USC00500270","1954-03-02",5.00,-14.98,13.00,13.00,
"USC00500270","1954-03-03",-11.02,-16.96,0.00,0.00,
"USC00500270","1954-03-04",-16.06,-32.08,0.00,0.00,
"USC00500270","1954-03-05",-2.92,-20.02,0.00,0.00,
"USC00500270","1954-03-06",-2.92,-22.00,0.00,0.00,
"USC00500270","1954-03-07",-2.92,-27.04,0.00,0.00,
"USC00500270","1954-03-08",-23.98,-31.00,0.00,0.00,
"USC00500270","1954-03-09",-20.02,-34.06,0.00,0.00,
"USC00500270","1954-03-10",-5.08,-25.06,0.00,0.00,
"USC00500270","1954-03-11",5.00,-13.00,0.00,0.00,
"USC00500270","1954-03-12",3.02,-7.06,0.00,0.00,
"USC00500270","1954-03-13",-5.08,-13.00,8.00,8.00,
"USC00500270","1954-03-14",-7.06,-25.06,0.00,0.00,
"USC00500270","1954-03-15",15.08,-13.00,0.00,0.00,
"USC00500270","1954-03-16",14.00,3.02,0.00,0.00,
"USC00500270","1954-03-17",5.00,-7.06,0.00,0.00,
"USC00500270","1954-03-18",3.02,-11.02,0.00,0.00,
"USC00500270","1954-03-19",14.00,-0.04,0.00,0.00,
"USC00500270","1954-03-20",26.96,12.02,0.00,0.00,
"USC00500270","1954-03-21",28.04,1.04,102.00,102.00,
"USC00500270","1954-03-22",17.96,3.02,0.00,0.00,
"USC00500270","1954-03-23",12.02,6.08,0.00,0.00,
"USC00500270","1954-03-24",19.94,10.94,0.00,0.00,
"USC00500270","1954-03-25",21.02,5.00,0.00,0.00,
"USC00500270","1954-03-26",24.08,14.00,0.00,0.00,
"USC00500270","1954-03-27",26.96,15.08,0.00,0.00,
"USC00500270","1954-03-28",23.00,1.04,0.00,0.00,
"USC00500270","1954-03-29",24.98,1.94,0.00,0.00,
"USC00500270","1954-03-30",28.04,17.06,0.00,0.00,
"USC00500270","1954-03-31",26.06,1.94,0.00,0.00,
"USC00500270","1954-04-01",28.94,12.02,20.00,20.00,
"USC00500270","1954-04-02",26.96,19.94,0.00,0.00,
"USC00500270","1954-04-03",28.94,17.96,0.00,0.00,
"USC00500270","1954-04-04",26.06,8.96,127.00,127.00,
"USC00500270","1954-04-05",14.00,6.08,25.00,25.00,
"USC00500270","1954-04-06",10.04,-9.94,0.00,0.00,
"USC00500270","1954-04-07",8.96,-2.02,13.00,13.00,
"USC00500270","1954-04-08",1.04,-11.92,0.00,0.00,
"USC00500270","1954-04-09",-2.92,-11.92,0.00,0.00,
"USC00500270","1954-04-10",-2.92,-20.02,0.00,0.00,
"USC00500270","1954-04-11",-2.02,-16.96,0.00,0.00,
"USC00500270","1954-04-12",-5.08,-13.00,0.00,0.00,
"USC00500270","1954-04-13",-5.98,-16.96,0.00,0.00,
"USC00500270","1954-04-14",1.94,-20.02,0.00,0.00,
"USC00500270","1954-04-15",10.04,-14.98,0.00,0.00,
"USC00500270","1954-04-16",10.04,-14.98,0.00,0.00,
"USC00500270","1954-04-17",12.02,-14.08,0.00,0.00,
"USC00500270","1954-04-18",12.92,-9.94,0.00,0.00,
"USC00500270","1954-04-19",12.92,-5.08,0.00,0.00,
"USC00500270","1954-04-20",17.06,-7.96,0.00,0.00,
"USC00500270","1954-04-21",19.04,6.98,0.00,0.00,
"USC00500270","1954-04-22",21.92,-0.94,0.00,0.00,
"USC00500270","1954-04-23",26.06,1.94,0.00,0.00,
"USC00500270","1954-04-24",,,0.00,0.00,
"USC00500270","1954-04-25",,,0.00,0.00,
"USC00500270","1954-04-26",30.02,6.98,0.00,0.00,
"USC00500270","1954-04-27",30.02,6.98,0.00,0.00,
"USC00500270","1954-04-28",32.00,15.08,0.00,0.00,
"USC00500270","1954-04-29",33.08,19.04,0.00,0.00,
"USC00500270","1954-04-30",35.06,26.06,0.00,0.00,
"USC00500270","1954-05-01",33.08,23.00,0.00,0.00,
"USC00500270","1954-05-02",39.92,14.00,0.00,0.00,
"USC00500270","1954-05-03",33.08,12.02,0.00,0.00,
"USC00500270","1954-05-04",19.94,12.02,13.00,13.00,
"USC00500270","1954-05-05",35.06,6.98,0.00,0.00,
"USC00500270","1954-05-06",39.92,15.08,0.00,0.00,
"USC00500270","1954-05-07",48.92,21.92,0.00,0.00,
"USC00500270","1954-05-08",51.98,21.92,0.00,0.00,
"USC00500270","1954-05-09",53.96,28.04,0.00,0.00,
"USC00500270","1954-05-10",46.94,30.02,8.00,8.00,
"USC00500270","1954-05-11",30.02,17.06,0.00,0.00,
"USC00500270","1954-05-12",23.00,6.98,0.00,0.00,
"USC00500270","1954-05-13",21.92,1.94,0.00,0.00,
"USC00500270","1954-05-14",30.02,3.02,0.00,0.00,
"USC00500270","1954-05-15",,,0.00,0.00,
"USC00500270","1954-05-16",46.94,6.98,0.00,0.00,
"USC00500270","1954-05-17",46.04,24.98,0.00,0.00,
"USC00500270","1954-05-18",42.08,26.06,0.00,0.00,
"USC00500270","1954-05-19",42.08,21.02,0.00,0.00,
"USC00500270","1954-05-20",33.08,17.96,0.00,0.00,
"USC00500270","1954-05-21",50.00,14.00,0.00,0.00,
"USC00500270","1954-05-22",42.08,26.06,0.00,0.00,
"USC00500270","1954-05-23",30.02,17.06,0.00,0.00,
"USC00500270","1954-05-24",35.96,14.00,0.00,0.00,
"USC00500270","1954-05-25",24.08,12.02,8.00,8.00,
"USC00500270","1954-05-26",21.02,12.92,51.00,51.00,
"USC00500270","1954-05-27",30.92,10.04,0.00,0.00,
"USC00500270","1954-05-28",42.98,12.02,0.00,0.00,
"USC00500270","1954-05-29",44.06,12.02,0.00,0.00,
"USC00500270","1954-05-30",39.92,23.00,18.00,0.00,
"USC00500270","1954-05-31",46.94,30.02,0.00,0.00,
"USC00500270","1954-06-01",44.96,26.96,0.00,0.00,
"USC00500270","1954-06-02",48.02,28.04,0.00,0.00,
"USC00500270","1954-06-03",62.06,30.02,23.00,0.00,
"USC00500270","1954-06-04",55.04,33.98,3.00,0.00,
"USC00500270","1954-06-05",64.94,30.02,0.00,0.00,
"USC00500270","1954-06-06",57.92,35.06,0.00,0.00,
"USC00500270","1954-06-07",48.02,26.06,0.00,0.00,
"USC00500270","1954-06-08",46.94,26.06,0.00,0.00,
"USC00500270","1954-06-09",44.96,24.98,0.00,0.00,
"USC00500270","1954-06-10",51.08,26.96,0.00,0.00,
"USC00500270","1954-06-11",48.92,30.92,0.00,0.00,
"USC00500270","1954-06-12",37.04,24.98,0.00,0.00,
"USC00500270","1954-06-13",39.02,28.04,13.00,0.00,
"USC00500270","1954-06-14",44.96,32.00,0.00,0.00,
"USC00500270","1954-06-15",53.06,35.06,0.00,0.00,
"USC00500270","1954-06-16",,,0.00,0.00,
"USC00500270","1954-06-17",51.98,32.00,0.00,0.00,
"USC00500270","1954-06-18",62.06,33.98,0.00,0.00,
"USC00500270","1954-06-19",66.92,39.02,0.00,0.00,
"USC00500270","1954-06-20",64.94,39.92,0.00,0.00,
"USC00500270","1954-06-21",50.00,35.96,15.00,0.00,
"USC00500270","1954-06-22",50.00,35.06,38.00,0.00,
"USC00500270","1954-06-23",51.08,30.02,0.00,0.00,
"USC00500270","1954-06-24",46.04,37.94,33.00,0.00,
"USC00500270","1954-06-25",51.98,35.96,18.00,0.00,
"USC00500270","1954-06-26",48.02,39.92,10.00,0.00,
"USC00500270","1954-06-27",57.92,35.06,10.00,0.00,
"USC00500270","1954-06-28",62.06,35.96,0.00,0.00,
"USC00500270","1954-06-29",62.96,39.92,8.00,0.00,
"USC00500270","1954-06-30",69.98,39.92,0.00,0.00,
"USC00500270","1954-07-01",73.04,48.02,0.00,0.00,
"USC00500270","1954-07-02",71.96,53.06,0.00,0.00,
"USC00500270","1954-07-03",64.94,46.04,0.00,0.00,
"USC00500270","1954-07-04",71.06,44.96,0.00,0.00,
"USC00500270","1954-07-05",69.98,44.06,0.00,0.00,
"USC00500270","1954-07-06",62.96,39.02,30.00,0.00,
"USC00500270","1954-07-07",57.02,48.02,0.00,0.00,
"USC00500270","1954-07-08",64.94,50.00,0.00,0.00,
"USC00500270","1954-07-09",62.06,39.92,58.00,0.00,
"USC00500270","1954-07-10",51.08,39.92,20.00,0.00,
"USC00500270","1954-07-11",51.08,26.06,20.00,0.00,
"USC00500270","1954-07-12",53.06,28.94,0.00,0.00,
"USC00500270","1954-07-13",60.98,30.02,0.00,0.00,
"USC00500270","1954-07-14",60.08,46.04,0.00,0.00,
"USC00500270","1954-07-15",69.98,44.96,0.00,0.00,
"USC00500270","1954-07-16",69.98,46.04,0.00,0.00,
"USC00500270","1954-07-17",69.98,50.00,0.00,0.00,
"USC00500270","1954-07-18",75.92,44.06,5.00,0.00,
"USC00500270","1954-07-19",64.94,39.92,0.00,0.00,
"USC00500270","1954-07-20",39.92,30.02,0.00,0.00,
"USC00500270","1954-07-21",41.00,32.00,0.00,0.00,
"USC00500270","1954-07-22",48.92,30.92,0.00,0.00,
"USC00500270","1954-07-23",55.94,33.08,0.00,0.00,
"USC00500270","1954-07-24",60.98,30.92,0.00,0.00,
"USC00500270","1954-07-25",57.02,33.98,0.00,0.00,
"USC00500270","1954-07-26",60.08,44.96,15.00,0.00,
"USC00500270","1954-07-27",60.08,42.98,0.00,0.00,
"USC00500270","1954-07-28",60.08,48.02,0.00,0.00,
"USC00500270","1954-07-29",50.00,39.02,64.00,0.00,
"USC00500270","1954-07-30",53.96,39.92,0.00,0.00,
"USC00500270","1954-07-31",53.06,44.06,25.00,0.00,
"USC00500270","1954-08-01",53.06,42.98,30.00,0.00,
"USC00500270","1954-08-02",57.92,46.04,5.00,0.00,
"USC00500270","1954-08-03",57.92,46.94,3.00,0.00,
"USC00500270","1954-08-04",60.08,41.00,25.00,0.00,
"USC00500270","1954-08-05",55.94,44.96,25.00,0.00,
"USC00500270","1954-08-06",57.02,48.02,0.00,0.00,
"USC00500270","1954-08-07",60.98,44.96,0.00,0.00,
"USC00500270","1954-08-08",66.02,48.02,0.00,0.00,
"USC00500270","1954-08-09",66.02,48.02,0.00,0.00,
"USC00500270","1954-08-10",69.98,42.08,0.00,0.00,
"USC00500270","1954-08-11",69.98,37.94,0.00,0.00,
"USC00500270","1954-08-12",64.94,42.98,13.00,0.00,
"USC00500270","1954-08-13",55.94,44.06,94.00,0.00,
"USC00500270","1954-08-14",55.04,39.02,5.00,0.00,
"USC00500270","1954-08-15",48.92,42.98,30.00,0.00,
"USC00500270","1954-08-16",51.98,39.92,0.00,0.00,
"USC00500270","1954-08-17",60.98,39.92,8.00,0.00,
"USC00500270","1954-08-18",60.08,37.94,0.00,0.00,
"USC00500270","1954-08-19",59.00,46.94,0.00,0.00,
"USC00500270","1954-08-20",57.02,44.06,25.00,0.00,
"USC00500270","1954-08-21",53.06,37.04,0.00,0.00,
"USC00500270","1954-08-22",55.94,39.02,0.00,0.00,
"USC00500270","1954-08-23",,,0.00,0.00,
"USC00500270","1954-08-24",62.06,48.92,3.00,0.00,
"USC00500270","1954-08-25",53.06,42.08,0.00,0.00,
"USC00500270","1954-08-26",48.92,39.02,0.00,0.00,
"USC00500270","1954-08-27",44.96,37.04,3.00,0.00,
"USC00500270","1954-08-28",51.98,35.96,5.00,0.00,
"USC00500270","1954-08-29",48.02,33.08,0.00,0.00,
"USC00500270","1954-08-30",48.02,33.08,13.00,0.00,
"USC00500270","1954-08-31",48.02,35.06,13.00,0.00,
"USC00500270","1954-09-01",53.06,41.00,0.00,0.00,
"USC00500270","1954-09-02",55.94,44.96,0.00,0.00,
"USC00500270","1954-09-03",55.04,39.92,8.00,0.00,
"USC00500270","1954-09-04",46.04,37.94,15.00,0.00,
"USC00500270","1954-09-05",48.02,30.92,5.00,0.00,
"USC00500270","1954-09-06",51.08,37.94,0.00,0.00,
"USC00500270","1954-09-07",44.96,35.06,3.00,0.00,
"USC00500270","1954-09-08",41.00,32.00,13.00,0.00,
"USC00500270","1954-09-09",44.96,37.94,10.00,0.00,
"USC00500270","1954-09-10",46.04,37.94,3.00,0.00,
"USC00500270","1954-09-11",39.92,26.96,13.00,76.00,
"USC00500270","1954-09-12",,,0.00,0.00,
"USC00500270","1954-09-13",51.98,12.02,0.00,0.00,
"USC00500270","1954-09-14",48.02,28.94,0.00,0.00,
"USC00500270","1954-09-15",46.94,35.06,0.00,0.00,
"USC00500270","1954-09-16",50.00,37.04,64.00,0.00,
"USC00500270","1954-09-17",41.00,24.98,76.00,76.00,
"USC00500270","1954-09-18",39.92,21.92,102.00,102.00,
"USC00500270","1954-09-19",24.98,19.04,76.00,76.00,
"USC00500270","1954-09-20",28.04,15.98,76.00,76.00,
"USC00500270","1954-09-21",21.92,6.08,0.00,0.00,
"USC00500270","1954-09-22",,,0.00,0.00,
"USC00500270","1954-09-23",15.08,1.94,25.00,25.00,
"USC00500270","1954-09-24",15.08,10.04,0.00,0.00,
"USC00500270","1954-09-25",15.98,-0.94,0.00,0.00,
"USC00500270","1954-09-26",33.08,3.02,0.00,0.00,
"USC00500270","1954-09-27",35.06,12.92,0.00,0.00,
"USC00500270","1954-09-28",37.04,28.04,0.00,0.00,
"USC00500270","1954-09-29",35.96,33.08,25.00,0.00,
"USC00500270","1954-09-30",35.06,19.04,13.00,0.00,
"USC00500270","1954-10-01",28.94,23.00,0.00,0.00,
"USC00500270","1954-10-02",37.94,15.08,0.00,0.00,
"USC00500270","1954-10-03",35.06,21.02,0.00,0.00,
"USC00500270","1954-10-04",32.00,21.92,8.00,8.00,
"USC00500270","1954-10-05",24.98,21.02,76.00,76.00,
"USC00500270","1954-10-06",21.92,6.98,76.00,76.00,
"USC00500270","1954-10-07",10.04,3.02,0.00,0.00,
"USC00500270","1954-10-08",5.00,-4.00,0.00,0.00,
"USC00500270","1954-10-09",28.04,-2.02,0.00,0.00,
"USC00500270","1954-10-10",21.92,10.04,0.00,0.00,
"USC00500270","1954-10-11",12.02,8.96,25.00,25.00,
"USC00500270","1954-10-12",14.00,8.06,13.00,13.00,
"USC00500270","1954-10-13",8.96,3.92,25.00,25.00,